{"data":{"norad_id":69281,"epoch":"2026-09-19T17:00:41.694624Z","epoch_age_seconds":98477,"freshness":"FRESH","line1":"1 69281U 26118Q   26262.70881591  .00002073  00000+0  30077-3 0  9992","line2":"2 69281  51.9035 347.6953 0000351  97.4798 262.6205 14.79935157 18082","mean_motion":14.79935157,"eccentricity":3.51e-5,"inclination_deg":51.9035,"raan_deg":347.6953,"arg_perigee_deg":97.4798,"mean_anomaly_deg":262.6205,"bstar":0.00030077,"rev_number":1808,"period_min":97.301560354782,"perigee_km":629.28285099848,"apogee_km":629.77478913905,"semimajor_km":7007.6658200688,"source":"CELESTRAK","updated_at":"2026-09-20T09:00:24.780029Z"}}